Punta Gorda, FL

2:25 AM EDT on April 28, 2017 (GMT -0400)
Charlotte County

Weather History for KPGD - July, 2014

Change the Weather History Date:

Thursday, July 3, 2014

  Actual Average Record
Temperature  
Mean Temperature 84 °F -  
Max Temperature 91 °F 89 °F 100 °F (1998)
Min Temperature 77 °F 70 °F 70 °F (2007)
Cooling Degree Days 19    
Growing Degree Days 34 (Base 50)    
Moisture  
Dew Point 74 °F    
Average Humidity 73    
Maximum Humidity 90    
Minimum Humidity 57    
Precipitation  
Precipitation 0.01 in - - ()
Sea Level Pressure  
Sea Level Pressure 30.05 in    
Wind  
Wind Speed 7 mph (WSW)    
Max Wind Speed 17 mph    
Max Gust Speed -    
Visibility 10 miles    
Events Rain , Thunderstorm    
Averages and records for this station are not official NWS values.
T = Trace of Precipitation, MM = Missing Value Source: NWS Daily Summary

Daily Weather History Graph

Daily Weather History Graph

Search for Another Location

Airport or City:

Trip Planner

Search our weather history database for the weather conditions in past years. The results will help you decide how hot, cold, wet, or windy it might be!

Date:

Astronomy

Jul. 03, 2014 Rise Set
Actual Time 6:38 AM EDT 8:25 PM EDT
Civil Twilight 6:12 AM EDT 8:52 PM EDT
Nautical Twilight 5:40 AM EDT 9:23 PM EDT
Astronomical Twilight 5:07 AM EDT 9:57 PM EDT
Moon 12:03 PM EDT (7/3) No Moon Set
Length of Visible Light 14h 40m
Length of Day
13h 47m
Waxing Crescent, 33% of the Moon is Illuminated
Jul 3
Waxing Crescent
Jul 5
First Quarter
Jul 12
Full
Jul 18
Last Quarter
Jul 26
New

Hourly Weather History & Observations

Time (EDT) Temp. Heat Index Dew Point Humidity Pressure Visibility Wind Dir Wind Speed Gust Speed Precip Events Conditions
12:53 AM 84.0 °F 91.9 °F 75.0 °F 74% 30.00 in 10.0 mi WSW 6.9 mph - N/A   Clear
1:53 AM 82.9 °F 90.8 °F 75.9 °F 79% 30.00 in 10.0 mi West 5.8 mph - N/A   Clear
2:53 AM 82.9 °F 90.8 °F 75.9 °F 79% 30.00 in 10.0 mi West 5.8 mph - N/A   Partly Cloudy
3:14 AM 82.0 °F 89.4 °F 75.9 °F 82% 30.00 in 10.0 mi West 8.1 mph - N/A Thunderstorm Thunderstorm
3:33 AM 81.0 °F 85.2 °F 72.0 °F 74% 30.01 in 10.0 mi NW 4.6 mph - N/A Thunderstorm Thunderstorm
3:43 AM 81.0 °F 85.2 °F 72.0 °F 74% 30.00 in 10.0 mi Calm Calm - N/A Thunderstorm Scattered Clouds
3:53 AM 80.1 °F 83.6 °F 71.1 °F 74% 30.01 in 10.0 mi Calm Calm - N/A   Partly Cloudy
4:20 AM 80.1 °F 83.8 °F 72.0 °F 76% 30.01 in 10.0 mi South 4.6 mph - N/A Thunderstorm Partly Cloudy
4:32 AM 79.0 °F - 75.0 °F 88% 30.01 in 7.0 mi SSW 5.8 mph - 0.00 in Rain , Thunderstorm Light Thunderstorms and Rain
4:50 AM 78.8 °F - 75.2 °F 89% 30.01 in 9.0 mi East 4.6 mph - 0.00 in Thunderstorm Partly Cloudy
4:53 AM 78.1 °F - 75.0 °F 90% 30.01 in 9.0 mi ENE 3.5 mph - 0.00 in Thunderstorm Partly Cloudy
5:53 AM 77.0 °F - 73.0 °F 88% 30.02 in 10.0 mi North 3.5 mph - 0.01 in   Scattered Clouds
6:53 AM 77.0 °F - 73.0 °F 88% 30.04 in 10.0 mi South 8.1 mph - 0.00 in   Partly Cloudy
7:53 AM 80.1 °F 85.1 °F 75.0 °F 85% 30.05 in 10.0 mi SSW 6.9 mph - N/A   Clear
8:53 AM 82.9 °F 90.2 °F 75.0 °F 77% 30.07 in 10.0 mi WSW 5.8 mph - N/A   Clear
10:53 AM 87.1 °F 96.3 °F 75.0 °F 67% 30.08 in 10.0 mi SW 11.5 mph - N/A   Partly Cloudy
11:53 AM 89.1 °F 98.0 °F 73.9 °F 61% 30.09 in 10.0 mi SW 12.7 mph - N/A   Partly Cloudy
12:53 PM 90.0 °F 97.9 °F 73.0 °F 57% 30.09 in 10.0 mi WSW 15.0 mph - N/A   Partly Cloudy
1:53 PM 90.0 °F 100.2 °F 75.0 °F 61% 30.08 in 10.0 mi WSW 15.0 mph - N/A   Partly Cloudy
3:53 PM 91.0 °F 100.4 °F 73.9 °F 57% 30.06 in 10.0 mi SW 16.1 mph - N/A   Clear
4:53 PM 91.0 °F 102.9 °F 75.9 °F 61% 30.05 in 10.0 mi WSW 17.3 mph - N/A   Scattered Clouds
5:53 PM 90.0 °F 99.0 °F 73.9 °F 59% 30.04 in 10.0 mi SW 15.0 mph - N/A   Clear
6:53 PM 88.0 °F 95.6 °F 73.0 °F 61% 30.05 in 10.0 mi SW 15.0 mph - N/A   Clear
7:53 PM 87.1 °F 94.5 °F 73.0 °F 63% 30.07 in 10.0 mi WSW 13.8 mph - N/A   Partly Cloudy
8:53 PM 84.9 °F 92.1 °F 73.9 °F 69% 30.09 in 10.0 mi WSW 8.1 mph - N/A   Partly Cloudy
9:53 PM 84.0 °F 91.2 °F 73.9 °F 72% 30.11 in 10.0 mi WNW 6.9 mph - N/A   Partly Cloudy
10:53 PM 81.0 °F 85.8 °F 73.0 °F 77% 30.12 in 10.0 mi Calm Calm - N/A   Clear
11:53 PM 82.9 °F 89.4 °F 73.9 °F 74% 30.12 in 10.0 mi West 4.6 mph - N/A   Clear